Flag for Poland Weather past 2 weeks in Rzeszów, Poland

Now
55 °F

Overcast.


Feels Like: 53 °F
Forecast: 48 / 59 °F
Wind: 8 mph from East

Location: Rzeszow-Jasionka

Current Time: Oct 1, 2014 at 11:29:19 PM

Latest Report: Oct 1, 2014 at 11:00 PM


Visibility: N/A

Pressure: 30.30 "Hg

Humidity: 88%

Dew point: 52 °F

Location of RzeszówLocation

Historic Weather in Rzeszów — Graph

°F

Rzeszów temperature yesterday

Maximum temperature yesterday: 70 °F (at 1:30 PM)
Minimum temperature yesterday: 46 °F (at 5:30 AM)
Average temperature yesterday: 60 °F

Past Weeks' High & Low Weather Summary

 TemperatureHumidityPressure
High73 °F (Sep 19, 2:30 PM)100% (Sep 18, 5:00 AM)30.42 "Hg (Sep 18, 5:00 AM)
Low36 °F (Sep 27, 5:00 AM)38% (Sep 18, 5:30 PM)29.62 "Hg (Sep 22, 8:00 AM)
Average54 °F84%30.10 "Hg
* Reported Sep 16 10:00 PM — Oct 1 10:00 PM, Rzeszów, Weather by CustomWeather, © 2014

Note: Actual official high and low records may vary slightly from our data, if they occured in-between our weather recording intervals... More about our weather records

Advertising

Rzeszów weather history for previous 24 hours

 ConditionsComfort  
Time TempWeatherWind HumidityBarometerVisibility
10:00 PM
Oct 1
55 °FOvercast.8 mph88%30.33 "HgN/A
9:30 PM55 °FMostly cloudy.8 mph88%30.30 "HgN/A
9:00 PM55 °FMostly cloudy.8 mph88%30.30 "HgN/A
8:30 PM55 °FOvercast.9 mph94%30.33 "HgN/A
8:00 PM55 °FOvercast.8 mph88%30.30 "Hg5 mi
7:30 PM57 °FOvercast.10 mph88%30.30 "Hg5 mi
7:00 PM57 °FOvercast.9 mph88%30.30 "Hg5 mi
6:30 PM57 °FOvercast.9 mph94%30.30 "Hg4 mi
6:00 PM57 °FMore clouds than sun.9 mph94%30.30 "Hg4 mi
5:30 PM59 °FBroken clouds.10 mph88%30.30 "Hg4 mi
5:00 PM59 °FBroken clouds.8 mph94%30.30 "Hg4 mi
4:30 PM61 °FPartly sunny.10 mph88%30.30 "Hg4 mi
4:00 PM61 °FPartly sunny.10 mph88%30.30 "Hg4 mi
3:30 PM61 °FOvercast.8 mph88%30.30 "Hg4 mi
3:00 PM61 °FMore clouds than sun.8 mph88%30.30 "Hg4 mi
2:30 PM61 °FMore clouds than sun.7 mph94%30.30 "Hg4 mi
2:00 PM61 °FMostly cloudy.8 mph94%30.30 "Hg4 mi
1:30 PM61 °FFog.7 mph94%30.30 "Hg3 mi
1:00 PM61 °FFog.8 mph94%30.30 "Hg2 mi
12:30 PM61 °FFog.8 mph94%30.30 "Hg2 mi
12:00 PM59 °FFog.8 mph100%30.30 "Hg2 mi
11:30 AM59 °FSprinkles. Fog.8 mph100%30.30 "Hg1 mi
11:00 AM59 °FSprinkles. Fog.7 mph100%30.30 "Hg1 mi
10:30 AM59 °FFog.7 mph100%30.30 "Hg1 mi
10:00 AM59 °FFog.6 mph100%30.30 "Hg1 mi
9:30 AM59 °FLight rain. Fog.8 mph94%30.30 "Hg1 mi
9:00 AM59 °FLight rain. Fog.5 mph94%30.30 "Hg1 mi
8:30 AM57 °FLight rain. Fog.5 mph100%30.30 "Hg1 mi
8:00 AM57 °FFog.3 mph100%30.27 "Hg1 mi
7:30 AM57 °FLight rain. Fog.3 mph100%30.27 "Hg1 mi
7:00 AM57 °FLight rain. Fog.3 mph100%30.27 "Hg1 mi
6:30 AM57 °FLight rain. Fog.3 mph100%30.27 "Hg1 mi
6:00 AM57 °FLight rain. Fog.No wind100%30.27 "Hg1 mi
5:30 AM57 °FSleet. Overcast.No wind100%30.27 "Hg1 mi
5:00 AM57 °FFog.1 mph100%30.27 "Hg1 mi
4:30 AM57 °FSleet. Overcast.2 mph100%30.27 "Hg1 mi
4:00 AM57 °FLight rain. Fog.2 mph100%30.27 "Hg1 mi
3:30 AM57 °FLight rain. Fog.3 mph100%30.27 "Hg1 mi
3:00 AM57 °FFog.3 mph100%30.27 "Hg1 mi
2:30 AM59 °FFog.No wind94%30.27 "Hg2 mi
2:00 AM59 °FFog.1 mph94%30.27 "Hg2 mi
1:30 AM59 °FFog.3 mph100%30.27 "Hg2 mi
1:00 AM61 °FPassing clouds.2 mph94%30.27 "HgN/A
12:30 AM59 °FPassing clouds.2 mph100%30.27 "HgN/A
12:00 AM59 °FPassing clouds.3 mph94%30.27 "HgN/A
11:30 PM
Sep 30
61 °FClear.2 mph94%30.24 "Hg10 mi
Weather by CustomWeather, © 2014

See weather overviewHow to use our weather pages